Weather in Queenstown

New Zealand     45°01′42″S   168°39′47″E
temp.,
°C
wind,
m/s
gust,
m/s
humid.,
%
clouds,
%
prec.,
mm/h
press.,
hPa
HPBL,
m
11 april, sun
sun1100:00+9nnw1192100 0.3 99314
03:00+9w2290100 0.3 99629
06:00+9nnw2291100 0.3 99819
09:00+9ne1192100 0.6 100129
12:00+9nne1197100 1.8 100253
15:00+9ne1295100 0.8 100497
18:00+9e119580 1.9 100544
21:00+7nne11929 0.1 100713
12 april, mon
mon1200:00+5nnw11943 0.1 100812
03:00+5ene22936 0.0 100814
06:00+5ene2292100 0.0 100613
09:00+8ene2389100 0.0 1005127
12:00+11ne3471100 0.4 1001453
15:00+9ne3493100 5.8 998236
18:00+8nne3497100 10.5 997191
21:00+7nw2297100 3.7 99876
13 april, tue
tue1300:00+6nne119374 3.9 99741
03:00+4nw229332 0.1 99623
06:00+5nnw129479 0.6 99767
09:00+5nw118682 0.0 998171
12:00+10nnw235912 0.0 996979
15:00+11n23426 0.0 9941673
18:00+7nw225760 0.0 99512
21:00+4sw22795 0.0 100015
14 april, wed
wed1400:00+3w2289100 0.0 100111
03:00+4w238498 0.0 100160
06:00+4w2394100 1.9 1002209
09:00+5w2294100 1.1 1004176
12:00+6w1291100 1.6 1005183
15:00+8sw228290 0.0 1003411
18:00+6wsw1191100 0.0 100210
21:00+5wnw1192100 0.0 100210
15 april, thu
thu1500:00+4w2292100 0.0 100112
03:00+5w339584 0.0 100168
06:00+4wnw2293100 0.1 100229
09:00+5nw1287100 0.3 1003232
12:00+8wnw23777 0.3 1003415
15:00+12w245728 0.1 10011424
18:00+8w327011 0.1 100216
21:00+5wnw22879 0.0 100520